When you browse on this site, cookies collect data to enhance your experience and personalize the content and advertising you see.
Visit our Privacy Policy to learn more. By continuing to use the site, you agree to this use of cookies and data.
  • In Hungary
  • List of Countries
  • For 7 days
  • Water Temperature
  • Weather Map
  • News
  • Weather Widgets
  • user-avatar
    Login

    Hourly Weather Serednii Maidan

    Today, 20 August, Tuesday

    Time Temperature Precipitation Wind Pressure Humidity
    00:00 +24°C° 0 mm 1 mps 728 mmHg 72%
    01:00 +23°C° 0 mm 1 mps 728 mmHg 74%
    02:00 +19°C° 0 mm 1 mps 728 mmHg 79%
    03:00 +20°C° 0 mm 1 mps 728 mmHg 80%
    04:00 +20°C° 0 mm 1 mps 728 mmHg 77%
    05:00 +20°C° 0 mm 1 mps 728 mmHg 78%
    06:00 +20°C° 0 mm 1 mps 729 mmHg 77%
    07:00 +21°C° 0 mm 1 mps 729 mmHg 75%
    08:00 +20°C° 0 mm 0 mps 730 mmHg 79%
    09:00 +24°C° 0 mm 1 mps 730 mmHg 77%
    10:00 +25°C° 0 mm 1 mps 730 mmHg 76%
    11:00 +26°C° 0 mm 1 mps 730 mmHg 74%
    12:00 +28°C° 0 mm 1 mps 731 mmHg 73%
    13:00 +29°C° 0 mm 1 mps 731 mmHg 70%
    14:00 +29°C° 0 mm 2 mps 731 mmHg 65%
    15:00 +30°C° 0 mm 1 mps 731 mmHg 60%
    16:00 +30°C° 0 mm 1 mps 730 mmHg 55%
    17:00 +30°C° 0 mm 2 mps 730 mmHg 56%
    18:00 +29°C° 0 mm 1 mps 730 mmHg 61%
    19:00 +28°C° 0 mm 1 mps 730 mmHg 65%
    20:00 +27°C° 0 mm 3 mps 730 mmHg 70%
    21:00 +25°C° 0 mm 3 mps 730 mmHg 73%
    22:00 +24°C° 0 mm 3 mps 730 mmHg 78%
    23:00 +22°C° 0 mm 3 mps 730 mmHg 80%

    Tomorrow, 21 August, Wednesday

    Time Temperature Precipitation Wind Pressure Humidity
    00:00 +22°C° 0 mm 3 mps 730 mmHg 80%
    01:00 +21°C° 0 mm 3 mps 730 mmHg 81%
    02:00 +21°C° 0 mm 2 mps 729 mmHg 81%
    03:00 +21°C° 0 mm 2 mps 729 mmHg 80%
    04:00 +20°C° 0 mm 2 mps 729 mmHg 79%
    05:00 +20°C° 0 mm 2 mps 729 mmHg 79%
    06:00 +20°C° 0 mm 2 mps 729 mmHg 78%
    07:00 +20°C° 0 mm 2 mps 729 mmHg 78%
    08:00 +23°C° 0 mm 2 mps 729 mmHg 78%
    09:00 +26°C° 0 mm 3 mps 730 mmHg 69%
    10:00 +28°C° 0 mm 4 mps 730 mmHg 60%
    11:00 +29°C° 0 mm 4 mps 730 mmHg 60%
    12:00 +29°C° 0 mm 4 mps 730 mmHg 59%
    13:00 +30°C° 0 mm 3 mps 730 mmHg 56%
    14:00 +30°C° 0 mm 3 mps 730 mmHg 56%
    15:00 +30°C° 0 mm 3 mps 729 mmHg 56%
    16:00 +30°C° 0 mm 2 mps 729 mmHg 57%
    17:00 +30°C° 0 mm 1 mps 729 mmHg 57%
    18:00 +29°C° 0 mm 2 mps 729 mmHg 64%
    19:00 +27°C° 0 mm 3 mps 729 mmHg 76%
    20:00 +25°C° 0 mm 4 mps 730 mmHg 84%
    21:00 +22°C° 0 mm 4 mps 730 mmHg 96%
    22:00 +21°C° 0.1 mm 4 mps 731 mmHg 100%
    23:00 +20°C° 0.2 mm 4 mps 731 mmHg 100%

    Day after tomorrow, 22 August, Thursday

    Time Temperature Precipitation Wind Pressure Humidity
    00:00 +19°C° 0.1 mm 4 mps 731 mmHg 99%
    01:00 +17°C° 0 mm 5 mps 731 mmHg 97%
    02:00 +17°C° 0 mm 5 mps 732 mmHg 97%
    03:00 +16°C° 0 mm 5 mps 731 mmHg 97%
    04:00 +15°C° 0 mm 5 mps 731 mmHg 98%
    05:00 +15°C° 0 mm 4 mps 732 mmHg 98%
    06:00 +14°C° 0 mm 4 mps 732 mmHg 98%
    07:00 +14°C° 0 mm 5 mps 732 mmHg 97%
    08:00 +14°C° 0 mm 4 mps 732 mmHg 97%
    09:00 +14°C° 0 mm 4 mps 733 mmHg 96%
    10:00 +15°C° 0 mm 4 mps 733 mmHg 95%
    11:00 +17°C° 0 mm 4 mps 733 mmHg 88%
    12:00 +18°C° 0 mm 4 mps 733 mmHg 88%
    13:00 +18°C° 0 mm 4 mps 733 mmHg 88%
    14:00 +18°C° 0 mm 4 mps 733 mmHg 87%
    15:00 +19°C° 0 mm 4 mps 733 mmHg 85%
    16:00 +19°C° 0 mm 4 mps 732 mmHg 83%
    17:00 +20°C° 0 mm 3 mps 733 mmHg 81%
    18:00 +19°C° 0 mm 3 mps 733 mmHg 85%
    19:00 +19°C° 0 mm 2 mps 733 mmHg 90%
    20:00 +18°C° 0 mm 2 mps 733 mmHg 94%
    21:00 +18°C° 0 mm 2 mps 733 mmHg 95%
    22:00 +17°C° 0 mm 2 mps 733 mmHg 94%
    23:00 +17°C° 0 mm 2 mps 733 mmHg 94%

    23 August, Friday

    Time Temperature Precipitation Wind Pressure Humidity
    00:00 +18°C° 0 mm 1 mps 733 mmHg 97%
    01:00 +18°C° 0 mm 1 mps 733 mmHg 99%
    02:00 +18°C° 0 mm 1 mps 733 mmHg 100%
    03:00 +18°C° 0 mm 1 mps 733 mmHg 100%
    04:00 +18°C° 0 mm 1 mps 733 mmHg 100%
    05:00 +18°C° 0 mm 1 mps 733 mmHg 100%
    06:00 +18°C° 0 mm 1 mps 733 mmHg 100%
    07:00 +18°C° 0 mm 1 mps 733 mmHg 98%
    08:00 +19°C° 0 mm 1 mps 733 mmHg 96%
    09:00 +18°C° 0 mm 2 mps 734 mmHg 94%
    10:00 +19°C° 0 mm 2 mps 734 mmHg 89%
    11:00 +20°C° 0 mm 3 mps 734 mmHg 84%
    12:00 +21°C° 0 mm 3 mps 734 mmHg 78%
    13:00 +21°C° 0 mm 3 mps 734 mmHg 78%
    14:00 +21°C° 0 mm 3 mps 734 mmHg 76%
    15:00 +22°C° 0 mm 3 mps 734 mmHg 75%
    16:00 +22°C° 0 mm 3 mps 733 mmHg 75%
    17:00 +22°C° 0 mm 3 mps 734 mmHg 77%
    18:00 +21°C° 0 mm 3 mps 733 mmHg 80%
    19:00 +20°C° 0 mm 3 mps 733 mmHg 85%
    20:00 +19°C° 0 mm 2 mps 734 mmHg 89%
    21:00 +19°C° 0 mm 2 mps 734 mmHg 93%
    22:00 +18°C° 0 mm 2 mps 734 mmHg 97%
    23:00 +18°C° 0 mm 1 mps 734 mmHg 97%

    24 August, Saturday

    Time Temperature Precipitation Wind Pressure Humidity
    00:00 +16°C° 0 mm 0 mps 734 mmHg 97%
    01:00 +18°C° 0 mm 1 mps 734 mmHg 96%
    02:00 +18°C° 0 mm 1 mps 733 mmHg 99%

    25 August, Sunday

    Time Temperature Precipitation Wind Pressure Humidity
    Show more